,,PA_Meas_PMT16A,,PR_Meas_QMR101_102,,RH_Meas_QMH101,,SR_Meas_QMS101,,TA_Meas_QMH101,,GenWind,,GenWind,
time,status,PA,status,PR,status,RH,status,SR,status,TA,status,DirAvg,status,SpdAvg,
2016-01-13, 07:09:04,VALID,917.885,VALID,0,VALID,99.6228,VALID,91.8622,VALID,21.6729,VALID,79,VALID,1.26563,
2016-01-13, 07:10:04,VALID,917.888,VALID,0,VALID,99.7524,VALID,94.2259,VALID,21.712,VALID,100,VALID,1.11523,
2016-01-13, 07:11:04,VALID,917.898,VALID,0,VALID,99.2264,VALID,98.5235,VALID,21.751,VALID,76,VALID,1.41484,
2016-01-13, 07:13:04,VALID,917.911,VALID,0,VALID,100.256,VALID,104.863,VALID,21.7298,VALID,100,VALID,0.911328,
2016-01-13, 07:18:04,VALID,917.983,VALID,0,VALID,100.027,VALID,115.392,VALID,21.7721,VALID,143,VALID,0.828125,
2016-01-13, 07:19:04,VALID,918.04,VALID,0,VALID,99.7143,VALID,121.623,VALID,21.7721,VALID,148,VALID,0.875,
2016-01-13, 07:20:04,VALID,918.066,VALID,0,VALID,99.7676,VALID,130.004,VALID,21.8079,VALID,154,VALID,0.0257812,
2016-01-13, 07:21:04,VALID,918.079,VALID,0,VALID,100.545,VALID,139.244,VALID,21.8664,VALID,188,VALID,0.01875,
2016-01-13, 07:22:04,VALID,918.142,VALID,0,VALID,101.079,VALID,143.004,VALID,21.9266,VALID,189,VALID,1.00195,
2016-01-13, 07:23:04,VALID,918.165,VALID,0,VALID,101.437,VALID,151.277,VALID,21.9461,VALID,187,VALID,0,
2016-01-13, 07:24:04,VALID,918.198,VALID,0,VALID,101.727,VALID,154.071,VALID,21.964,VALID,188,VALID,0,
2016-01-13, 07:25:04,VALID,918.212,VALID,0,VALID,100.362,VALID,157.509,VALID,21.964,VALID,177,VALID,0.952734,
2016-01-13, 07:26:04,VALID,918.253,VALID,0,VALID,100.248,VALID,160.625,VALID,22.042,VALID,178,VALID,0,
2016-01-13, 07:27:04,VALID,918.234,VALID,0,VALID,100.233,VALID,163.525,VALID,22.1201,VALID,183,VALID,0,
2016-01-13, 07:28:04,VALID,918.211,VALID,0,VALID,99.5084,VALID,168.36,VALID,22.1981,VALID,165,VALID,0,
2016-01-13, 07:29:04,VALID,918.257,VALID,0,VALID,100.202,VALID,177.708,VALID,22.2762,VALID,138,VALID,0,
2016-01-13, 07:30:04,VALID,918.189,VALID,0,VALID,100.339,VALID,179.642,VALID,22.3542,VALID,135,VALID,0,
2016-01-13, 07:31:04,VALID,918.218,VALID,0,VALID,98.0752,VALID,181.576,VALID,22.3933,VALID,141,VALID,0,
2016-01-13, 07:32:04,VALID,918.21,VALID,0,VALID,89.9639,VALID,187.592,VALID,22.4518,VALID,176,VALID,0,
2016-01-13, 07:33:04,VALID,918.202,VALID,0,VALID,84.1778,VALID,188.667,VALID,22.5103,VALID,171,VALID,0,
2016-01-13, 07:34:04,VALID,918.227,VALID,0,VALID,83.8195,VALID,191.675,VALID,22.6274,VALID,171,VALID,0,
2016-01-13, 07:35:04,VALID,918.263,VALID,0,VALID,83.4002,VALID,198.014,VALID,22.8031,VALID,171,VALID,0,
2016-01-13, 07:36:04,VALID,918.28,VALID,0,VALID,83.2172,VALID,201.882,VALID,22.9592,VALID,196,VALID,0,
2016-01-13, 07:37:04,VALID,918.313,VALID,0,VALID,83.4002,VALID,202.527,VALID,23.0551,VALID,180,VALID,0,
2016-01-13, 07:38:04,VALID,918.361,VALID,0,VALID,81.8907,VALID,208.006,VALID,23.1722,VALID,196,VALID,0,
2016-01-13, 07:39:04,VALID,918.362,VALID,0,VALID,80.7243,VALID,211.767,VALID,23.2715,VALID,198,VALID,0,
2016-01-13, 07:40:04,VALID,918.377,VALID,0,VALID,80.4118,VALID,165.352,VALID,23.2502,VALID,229,VALID,0,
2016-01-13, 07:41:04,VALID,918.364,VALID,0,VALID,81.5324,VALID,180.286,VALID,23.2112,VALID,216,VALID,0,
2016-01-13, 07:42:04,VALID,918.369,VALID,0,VALID,81.4333,VALID,202.849,VALID,23.2715,VALID,187,VALID,0,
2016-01-13, 07:43:04,VALID,918.397,VALID,0,VALID,81.1513,VALID,208.221,VALID,23.3691,VALID,189,VALID,0,
2016-01-13, 07:44:04,VALID,918.411,VALID,0,VALID,81.4105,VALID,209.833,VALID,23.4082,VALID,162,VALID,0.0617188,
2016-01-13, 07:45:04,VALID,918.428,VALID,0,VALID,79.558,VALID,208.866,VALID,23.4685,VALID,169,VALID,0,
2016-01-13, 07:46:04,VALID,918.418,VALID,0,VALID,79.032,VALID,164.278,VALID,23.5448,VALID,196,VALID,0,
2016-01-13, 07:47:04,VALID,918.429,VALID,0,VALID,79.7333,VALID,226.379,VALID,23.6034,VALID,190,VALID,0,
2016-01-13, 07:48:04,VALID,918.442,VALID,0,VALID,79.9163,VALID,230.569,VALID,23.6424,VALID,189,VALID,0,
2016-01-13, 07:49:04,VALID,918.423,VALID,0,VALID,79.7104,VALID,230.246,VALID,23.6229,VALID,193,VALID,0,
2016-01-13, 07:50:04,VALID,918.407,VALID,0,VALID,79.7943,VALID,233.685,VALID,23.6815,VALID,188,VALID,0,
2016-01-13, 07:51:04,VALID,918.463,VALID,0,VALID,79.436,VALID,238.519,VALID,23.6406,VALID,187,VALID,0,
2016-01-13, 07:52:04,VALID,918.475,VALID,0,VALID,80.3356,VALID,262.156,VALID,23.6815,VALID,170,VALID,0,
2016-01-13, 07:53:04,VALID,918.5,VALID,0,VALID,81.0217,VALID,287.083,VALID,23.6406,VALID,156,VALID,0,
2016-01-13, 07:54:04,VALID,918.476,VALID,0,VALID,80.7243,VALID,289.017,VALID,23.6797,VALID,195,VALID,0,
2016-01-13, 07:55:04,VALID,918.498,VALID,0,VALID,79.8477,VALID,272.256,VALID,23.7382,VALID,190,VALID,0,
2016-01-13, 07:56:04,VALID,918.456,VALID,0,VALID,80.1755,VALID,276.983,VALID,23.7578,VALID,194,VALID,0,
2016-01-13, 07:57:04,VALID,918.491,VALID,0,VALID,79.6418,VALID,290.199,VALID,23.7773,VALID,182,VALID,0,
2016-01-13, 07:58:04,VALID,918.484,VALID,0,VALID,80.0535,VALID,281.603,VALID,23.8554,VALID,177,VALID,0,
2016-01-13, 07:59:04,VALID,918.487,VALID,0,VALID,80.6176,VALID,273.76,VALID,23.9139,VALID,177,VALID,0,
2016-01-13, 08:00:04,VALID,918.491,VALID,0,VALID,79.9163,VALID,239.486,VALID,23.9316,VALID,179,VALID,0,
2016-01-13, 08:01:04,VALID,918.488,VALID,0,VALID,79.9468,VALID,203.386,VALID,23.8767,VALID,120,VALID,0,
2016-01-13, 08:02:04,VALID,918.51,VALID,0,VALID,80.2517,VALID,251.412,VALID,23.7382,VALID,121,VALID,0,
2016-01-13, 08:03:04,VALID,918.514,VALID,0,VALID,80.1221,VALID,270.752,VALID,23.6992,VALID,144,VALID,0,
2016-01-13, 08:04:04,VALID,918.492,VALID,0,VALID,81.1513,VALID,174.162,VALID,23.6992,VALID,138,VALID,0,
2016-01-13, 08:05:04,VALID,918.454,VALID,0,VALID,80.9302,VALID,271.719,VALID,23.6602,VALID,171,VALID,0.936328,
2016-01-13, 08:06:04,VALID,918.431,VALID,0,VALID,80.8235,VALID,275.694,VALID,23.5235,VALID,188,VALID,0.0824219,
2016-01-13, 08:07:04,VALID,918.435,VALID,0,VALID,81.8069,VALID,254.958,VALID,23.5626,VALID,181,VALID,0,
2016-01-13, 08:08:04,VALID,918.424,VALID,0,VALID,80.5338,VALID,158.691,VALID,23.6211,VALID,163,VALID,0,
2016-01-13, 08:09:04,VALID,918.381,VALID,0,VALID,80.7396,VALID,119.152,VALID,23.7205,VALID,181,VALID,0,
2016-01-13, 08:10:04,VALID,918.402,VALID,0,VALID,81.4562,VALID,118.4,VALID,23.7205,VALID,178,VALID,0,
2016-01-13, 08:11:04,VALID,918.429,VALID,0,VALID,80.3661,VALID,125.491,VALID,23.5821,VALID,118,VALID,0.219141,
2016-01-13, 08:12:04,VALID,918.469,VALID,0,VALID,81.5019,VALID,208.758,VALID,23.4454,VALID,124,VALID,0.04375,
2016-01-13, 08:13:04,VALID,918.441,VALID,0,VALID,83.7813,VALID,325.224,VALID,23.2307,VALID,131,VALID,1.1375,
2016-01-13, 08:14:04,VALID,918.428,VALID,0,VALID,81.7535,VALID,325.009,VALID,23.0941,VALID,93,VALID,1.27617,
2016-01-13, 08:15:04,VALID,918.412,VALID,0,VALID,84.658,VALID,165.782,VALID,23.1136,VALID,135,VALID,0.919922,
2016-01-13, 08:16:04,VALID,918.444,VALID,0,VALID,82.9504,VALID,175.237,VALID,23.0356,VALID,136,VALID,1.56914,
2016-01-13, 08:17:04,VALID,918.509,VALID,0,VALID,84.4065,VALID,184.154,VALID,22.977,VALID,120,VALID,1.2375,
2016-01-13, 08:18:04,VALID,918.51,VALID,0,VALID,84.1778,VALID,188.559,VALID,22.977,VALID,149,VALID,1.10195,
2016-01-13, 08:19:04,VALID,918.523,VALID,0,VALID,84.8029,VALID,176.956,VALID,22.9965,VALID,112,VALID,0.490234,
2016-01-13, 08:20:04,VALID,918.56,VALID,0,VALID,82.5235,VALID,161.699,VALID,22.9557,VALID,98,VALID,0.926562,
2016-01-13, 08:21:04,VALID,918.589,VALID,0,VALID,83.3773,VALID,142.897,VALID,22.9362,VALID,90,VALID,1.03242,
2016-01-13, 08:22:04,VALID,918.583,VALID,0,VALID,85.1764,VALID,136.343,VALID,22.977,VALID,59,VALID,0,
2016-01-13, 08:23:04,VALID,918.593,VALID,0,VALID,86.5258,VALID,135.591,VALID,22.938,VALID,181,VALID,1.13359,
2016-01-13, 08:24:04,VALID,918.605,VALID,0,VALID,87.654,VALID,134.409,VALID,22.9185,VALID,146,VALID,0,
2016-01-13, 08:25:04,VALID,918.607,VALID,0,VALID,85.1231,VALID,127.533,VALID,22.9185,VALID,145,VALID,0,
2016-01-13, 08:26:04,VALID,918.608,VALID,0,VALID,83.7051,VALID,115.929,VALID,22.8421,VALID,144,VALID,1.55898,
2016-01-13, 08:27:04,VALID,918.615,VALID,0,VALID,83.2858,VALID,105.937,VALID,22.7411,VALID,133,VALID,2.47539,
2016-01-13, 08:28:04,VALID,918.606,VALID,0,VALID,83.5526,VALID,101.102,VALID,22.7038,VALID,89,VALID,1.8875,
2016-01-13, 08:29:04,VALID,918.604,VALID,0,VALID,84.9858,VALID,97.9863,VALID,22.6647,VALID,133,VALID,0.422266,
2016-01-13, 08:34:04,VALID,918.597,VALID,0,VALID,84.9477,VALID,110.772,VALID,22.5672,VALID,113,VALID,0.269531,
2016-01-13, 08:35:04,VALID,918.594,VALID,0,VALID,90.5967,VALID,134.087,VALID,22.5867,VALID,104,VALID,0,
2016-01-13, 08:36:04,VALID,918.584,VALID,0,VALID,86.5563,VALID,158.261,VALID,22.5477,VALID,102,VALID,0,
2016-01-13, 08:37:04,VALID,918.557,VALID,0,VALID,91.9765,VALID,209.08,VALID,22.5459,VALID,105,VALID,0,
2016-01-13, 08:38:04,VALID,918.524,VALID,0,VALID,91.885,VALID,475.32,VALID,22.6452,VALID,82,VALID,0,
2016-01-13, 08:39:04,VALID,918.529,VALID,0,VALID,89.3236,VALID,553.107,VALID,22.8014,VALID,67,VALID,0,
2016-01-13, 08:40:04,VALID,918.506,VALID,0,VALID,85.2908,VALID,566.752,VALID,22.9965,VALID,39,VALID,0,
2016-01-13, 08:41:04,VALID,918.496,VALID,0,VALID,83.8042,VALID,536.024,VALID,23.2893,VALID,67,VALID,0,
2016-01-13, 08:42:04,VALID,918.519,VALID,0,VALID,82.9733,VALID,473.923,VALID,23.5608,VALID,63,VALID,0.603125,
2016-01-13, 08:43:04,VALID,918.474,VALID,0,VALID,80.2288,VALID,434.385,VALID,23.7382,VALID,58,VALID,1.61055,
2016-01-13, 08:44:04,VALID,918.521,VALID,0,VALID,81.6239,VALID,437.823,VALID,23.8749,VALID,73,VALID,1.80078,
2016-01-13, 08:45:04,VALID,918.544,VALID,0,VALID,79.0243,VALID,457.377,VALID,24.0097,VALID,110,VALID,1.3707,
2016-01-13, 08:46:04,VALID,918.553,VALID,0,VALID,80.023,VALID,450.716,VALID,24.1873,VALID,92,VALID,0.680469,
2016-01-13, 08:47:04,VALID,918.552,VALID,0,VALID,77.2023,VALID,434.492,VALID,24.3435,VALID,129,VALID,2.21523,
2016-01-13, 08:48:04,VALID,918.568,VALID,0,VALID,79.1768,VALID,441.153,VALID,24.2245,VALID,86,VALID,0.852344,
2016-01-13, 08:49:04,VALID,918.573,VALID,0,VALID,79.6037,VALID,223.478,VALID,24.2635,VALID,102,VALID,0,
2016-01-13, 08:50:04,VALID,918.599,VALID,0,VALID,78.8795,VALID,445.881,VALID,24.3611,VALID,85,VALID,0.235156,
2016-01-13, 08:51:04,VALID,918.606,VALID,0,VALID,77.1261,VALID,430.517,VALID,24.3221,VALID,129,VALID,1.36602,
2016-01-13, 08:52:04,VALID,918.572,VALID,0,VALID,79.4284,VALID,419.021,VALID,24.283,VALID,95,VALID,1.15977,
2016-01-13, 08:53:04,VALID,918.62,VALID,0,VALID,78.1629,VALID,412.144,VALID,24.4216,VALID,105,VALID,0.733984,
2016-01-13, 08:54:04,VALID,918.617,VALID,0,VALID,77.9494,VALID,413.326,VALID,24.3611,VALID,76,VALID,0.938281,
2016-01-13, 08:55:04,VALID,918.61,VALID,0,VALID,79.2454,VALID,422.673,VALID,24.1269,VALID,136,VALID,2.40234,
2016-01-13, 08:56:04,VALID,918.563,VALID,0,VALID,79.4741,VALID,427.293,VALID,24.0488,VALID,125,VALID,2.76484,
2016-01-13, 08:57:04,VALID,918.549,VALID,0,VALID,79.3598,VALID,439.219,VALID,23.9316,VALID,128,VALID,2.30195,
2016-01-13, 08:58:04,VALID,918.568,VALID,0,VALID,79.1387,VALID,450.823,VALID,23.834,VALID,116,VALID,3.03828,
2016-01-13, 08:59:04,VALID,918.523,VALID,0,VALID,80.2898,VALID,367.449,VALID,23.9298,VALID,87,VALID,0.901953,
2016-01-13, 09:00:04,VALID,918.543,VALID,0,VALID,78.9786,VALID,450.178,VALID,23.9103,VALID,95,VALID,2.71953,
2016-01-13, 09:01:04,VALID,918.55,VALID,0,VALID,80.4652,VALID,459.526,VALID,23.9103,VALID,73,VALID,1.92383,
2016-01-13, 09:02:04,VALID,918.599,VALID,0,VALID,78.4678,VALID,478.006,VALID,23.9689,VALID,109,VALID,2.39023,
2016-01-13, 09:03:04,VALID,918.588,VALID,0,VALID,76.9584,VALID,481.659,VALID,24.0079,VALID,70,VALID,3.69258,
2016-01-13, 09:04:04,VALID,918.397,VALID,0,VALID,75.5709,VALID,470.592,VALID,23.9902,VALID,59,VALID,4.65039,
2016-01-13, 09:05:04,VALID,918.474,VALID,0,VALID,76.6458,VALID,466.832,VALID,23.8517,VALID,89,VALID,3.3793,
2016-01-13, 09:06:04,VALID,918.547,VALID,0,VALID,76.8212,VALID,479.188,VALID,23.8127,VALID,60,VALID,1.6707,
2016-01-13, 09:07:04,VALID,918.538,VALID,0,VALID,78.4526,VALID,489.394,VALID,23.9103,VALID,54,VALID,2.42266,
2016-01-13, 09:08:04,VALID,918.534,VALID,0,VALID,77.3624,VALID,472.311,VALID,23.9884,VALID,56,VALID,2.30625,
2016-01-13, 09:09:04,VALID,918.569,VALID,0,VALID,77.1566,VALID,510.023,VALID,23.9884,VALID,87,VALID,2.625,
2016-01-13, 09:10:04,VALID,918.562,VALID,0,VALID,78.1171,VALID,509.593,VALID,24.0274,VALID,93,VALID,1.825,
2016-01-13, 09:11:04,VALID,918.518,VALID,0,VALID,78.3458,VALID,557.512,VALID,24.086,VALID,95,VALID,3.00195,
2016-01-13, 09:12:04,VALID,918.53,VALID,0,VALID,77.6521,VALID,533.123,VALID,24.125,VALID,100,VALID,1.36211,
2016-01-13, 09:13:04,VALID,918.56,VALID,0,VALID,76.5315,VALID,542.685,VALID,24.1445,VALID,87,VALID,3.04961,
2016-01-13, 09:14:04,VALID,918.515,VALID,0,VALID,77.5454,VALID,284.612,VALID,24.1641,VALID,76,VALID,2.22734,
2016-01-13, 09:15:04,VALID,918.515,VALID,0,VALID,76.2265,VALID,460.17,VALID,24.1659,VALID,106,VALID,1.56445,
2016-01-13, 09:16:04,VALID,918.531,VALID,0,VALID,77.7283,VALID,419.343,VALID,24.125,VALID,61,VALID,2.49258,
2016-01-13, 09:17:04,VALID,918.455,VALID,0,VALID,75.2202,VALID,230.461,VALID,24.1055,VALID,33,VALID,2.20039,
2016-01-13, 09:18:04,VALID,918.423,VALID,0,VALID,75.3727,VALID,293.637,VALID,24.1073,VALID,50,VALID,2.90898,
2016-01-13, 09:19:04,VALID,918.472,VALID,0,VALID,75.5328,VALID,552.785,VALID,24.1055,VALID,67,VALID,1.91797,
2016-01-13, 09:20:04,VALID,918.427,VALID,0,VALID,75.8301,VALID,523.023,VALID,24.1659,VALID,66,VALID,1.54883,
2016-01-13, 09:21:04,VALID,918.485,VALID,0,VALID,77.0422,VALID,235.296,VALID,24.2031,VALID,52,VALID,3.12031,
2016-01-13, 09:22:04,VALID,918.479,VALID,0,VALID,77.2633,VALID,221.651,VALID,24.3221,VALID,139,VALID,0,
2016-01-13, 09:23:04,VALID,918.464,VALID,0,VALID,76.1351,VALID,245.933,VALID,24.4002,VALID,191,VALID,0.916406,
2016-01-13, 09:24:04,VALID,918.469,VALID,0,VALID,75.9216,VALID,270.322,VALID,24.4374,VALID,64,VALID,0.407031,
2016-01-13, 09:25:04,VALID,918.482,VALID,0,VALID,77.37,VALID,312.439,VALID,24.3788,VALID,59,VALID,1.95547,
2016-01-13, 09:26:04,VALID,918.494,VALID,0,VALID,78.4754,VALID,327.91,VALID,24.3007,VALID,68,VALID,3.07734,
2016-01-13, 09:27:04,VALID,918.532,VALID,0,VALID,75.8377,VALID,501.106,VALID,24.1445,VALID,118,VALID,2.13555,
2016-01-13, 09:28:04,VALID,918.55,VALID,0,VALID,76.1427,VALID,312.331,VALID,24.086,VALID,97,VALID,1.03789,
2016-01-13, 09:29:04,VALID,918.531,VALID,0,VALID,77.6826,VALID,290.413,VALID,24.2049,VALID,53,VALID,0,
2016-01-13, 09:30:04,VALID,918.529,VALID,0,VALID,77.4768,VALID,277.521,VALID,24.3026,VALID,66,VALID,1.71797,
2016-01-13, 09:31:04,VALID,918.556,VALID,0,VALID,77.431,VALID,283.967,VALID,24.3221,VALID,42,VALID,1.86172,
2016-01-13, 09:32:04,VALID,918.543,VALID,0,VALID,75.8225,VALID,356.812,VALID,24.283,VALID,64,VALID,1.59766,
2016-01-13, 09:33:04,VALID,918.523,VALID,0,VALID,76.6382,VALID,374.862,VALID,24.2635,VALID,76,VALID,1.74492,
2016-01-13, 09:34:04,VALID,918.518,VALID,0,VALID,78.262,VALID,279.669,VALID,24.244,VALID,74,VALID,1.14727,
2016-01-13, 09:35:04,VALID,918.456,VALID,0,VALID,78.0866,VALID,310.935,VALID,24.2226,VALID,119,VALID,0.0632813,
2016-01-13, 09:36:04,VALID,918.455,VALID,0,VALID,77.1795,VALID,386.788,VALID,24.4392,VALID,43,VALID,0.359375,
2016-01-13, 09:37:04,VALID,918.461,VALID,0,VALID,72.9103,VALID,318.456,VALID,24.7321,VALID,94,VALID,1.42773,
2016-01-13, 09:38:04,VALID,918.483,VALID,0,VALID,76.1579,VALID,269.14,VALID,24.693,VALID,142,VALID,0.83125,
2016-01-13, 09:39:04,VALID,918.446,VALID,0,VALID,73.9624,VALID,235.726,VALID,24.6735,VALID,166,VALID,0.0632813,
2016-01-13, 09:40:04,VALID,918.479,VALID,0,VALID,73.4592,VALID,227.238,VALID,24.6912,VALID,104,VALID,0.187109,
2016-01-13, 09:41:04,VALID,918.526,VALID,0,VALID,72.7731,VALID,235.511,VALID,24.574,VALID,97,VALID,1.22305,
2016-01-13, 09:42:04,VALID,918.429,VALID,0,VALID,74.1453,VALID,325.439,VALID,24.4783,VALID,41,VALID,3.36445,
2016-01-13, 09:43:04,VALID,918.438,VALID,0,VALID,75.1364,VALID,348.109,VALID,24.4569,VALID,36,VALID,2.6,
2016-01-13, 09:44:04,VALID,918.526,VALID,0,VALID,74.153,VALID,334.249,VALID,24.4959,VALID,86,VALID,4.37578,
2016-01-13, 09:45:04,VALID,918.423,VALID,0,VALID,75.5557,VALID,361.11,VALID,24.4959,VALID,67,VALID,3.08789,
2016-01-13, 09:46:04,VALID,918.495,VALID,0,VALID,76.8821,VALID,385.499,VALID,24.5545,VALID,70,VALID,0.273047,
2016-01-13, 09:47:04,VALID,918.478,VALID,0,VALID,74.9915,VALID,327.266,VALID,24.654,VALID,62,VALID,2.21602,
2016-01-13, 09:48:04,VALID,918.475,VALID,0,VALID,77.2633,VALID,350.473,VALID,24.7516,VALID,109,VALID,0.114844,
2016-01-13, 09:49:04,VALID,918.491,VALID,0,VALID,76.0359,VALID,334.464,VALID,24.8883,VALID,49,VALID,2.71484,
2016-01-13, 09:50:04,VALID,918.449,VALID,0,VALID,75.548,VALID,333.175,VALID,24.8883,VALID,70,VALID,3.37812,
2016-01-13, 09:51:04,VALID,918.42,VALID,0,VALID,75.1898,VALID,332.853,VALID,24.8297,VALID,63,VALID,0,
2016-01-13, 09:52:04,VALID,918.409,VALID,0,VALID,75.6929,VALID,276.339,VALID,25.0231,VALID,28,VALID,0.901563,
2016-01-13, 09:53:04,VALID,918.44,VALID,0,VALID,75.6548,VALID,259.148,VALID,25.1988,VALID,73,VALID,1.38164,
2016-01-13, 09:54:04,VALID,918.372,VALID,0,VALID,73.3373,VALID,291.38,VALID,25.1031,VALID,67,VALID,1.32148,
2016-01-13, 09:55:04,VALID,918.399,VALID,0,VALID,73.566,VALID,384.639,VALID,25.0055,VALID,59,VALID,2.23984,
2016-01-13, 09:56:04,VALID,918.322,VALID,0,VALID,75.8377,VALID,399.896,VALID,24.8474,VALID,63,VALID,3.17656,
2016-01-13, 09:57:04,VALID,918.351,VALID,0,VALID,74.374,VALID,322.001,VALID,24.7302,VALID,92,VALID,0.235156,
2016-01-13, 09:58:04,VALID,918.349,VALID,0,VALID,74.0234,VALID,459.956,VALID,24.7107,VALID,44,VALID,2.43633,
2016-01-13, 09:59:04,VALID,918.391,VALID,0,VALID,76.783,VALID,419.128,VALID,24.7107,VALID,53,VALID,1.26289,
2016-01-13, 10:00:04,VALID,918.393,VALID,0,VALID,73.5812,VALID,261.189,VALID,24.7907,VALID,56,VALID,3.68711,
2016-01-13, 10:01:04,VALID,918.398,VALID,0,VALID,72.9713,VALID,290.199,VALID,24.6521,VALID,51,VALID,2.11172,
2016-01-13, 10:02:04,VALID,918.293,VALID,0,VALID,72.3386,VALID,248.834,VALID,24.6326,VALID,59,VALID,4.7918,
2016-01-13, 10:03:04,VALID,918.349,VALID,0,VALID,73.8252,VALID,587.273,VALID,24.574,VALID,46,VALID,2.72187,
2016-01-13, 10:04:04,VALID,918.267,VALID,0,VALID,73.1009,VALID,586.091,VALID,24.6521,VALID,50,VALID,4.20313,
2016-01-13, 10:05:04,VALID,918.363,VALID,0,VALID,74.7095,VALID,566.215,VALID,24.7497,VALID,33,VALID,2.91641,
2016-01-13, 10:06:04,VALID,918.357,VALID,0,VALID,75.7615,VALID,578.356,VALID,24.7888,VALID,69,VALID,2.10469,
2016-01-13, 10:07:04,VALID,918.379,VALID,0,VALID,74.7552,VALID,408.384,VALID,24.8083,VALID,67,VALID,3.30664,
2016-01-13, 10:08:04,VALID,918.373,VALID,0,VALID,74.1301,VALID,582.761,VALID,24.8278,VALID,43,VALID,3.05625,
2016-01-13, 10:09:04,VALID,918.366,VALID,0,VALID,73.3449,VALID,668.714,VALID,24.8669,VALID,79,VALID,3.08359,
2016-01-13, 10:10:04,VALID,918.385,VALID,0,VALID,75.9445,VALID,685.26,VALID,24.9059,VALID,58,VALID,2.08164,
2016-01-13, 10:11:04,VALID,918.368,VALID,0,VALID,73.2153,VALID,651.845,VALID,24.945,VALID,127,VALID,0.134375,
2016-01-13, 10:12:04,VALID,918.362,VALID,0,VALID,73.4287,VALID,712.013,VALID,25.1402,VALID,43,VALID,2.84102,
2016-01-13, 10:13:04,VALID,918.351,VALID,0,VALID,73.1619,VALID,606.613,VALID,25.2555,VALID,49,VALID,2.84219,
2016-01-13, 10:14:04,VALID,918.357,VALID,0,VALID,73.9471,VALID,746.931,VALID,25.2379,VALID,53,VALID,3.35547,
2016-01-13, 10:15:04,VALID,918.343,VALID,0,VALID,73.7337,VALID,671.4,VALID,25.2965,VALID,76,VALID,2.92461,
2016-01-13, 10:16:04,VALID,918.342,VALID,0,VALID,70.9664,VALID,334.035,VALID,25.2183,VALID,98,VALID,2.5875,
2016-01-13, 10:17:04,VALID,918.331,VALID,0,VALID,72.6969,VALID,304.488,VALID,25.1207,VALID,73,VALID,2.23281,
2016-01-13, 10:18:04,VALID,918.281,VALID,0,VALID,71.6601,VALID,278.058,VALID,24.984,VALID,50,VALID,3.15078,
2016-01-13, 10:19:04,VALID,918.292,VALID,0,VALID,73.2229,VALID,288.05,VALID,24.8083,VALID,75,VALID,1.98047,
2016-01-13, 10:20:04,VALID,918.333,VALID,0,VALID,75.2507,VALID,285.901,VALID,24.6893,VALID,124,VALID,1.49648,
2016-01-13, 10:21:04,VALID,918.284,VALID,0,VALID,76.8288,VALID,263.768,VALID,24.7888,VALID,52,VALID,1.66836,
2016-01-13, 10:22:04,VALID,918.29,VALID,0,VALID,75.4185,VALID,239.701,VALID,24.8083,VALID,59,VALID,2.58672,
2016-01-13, 10:23:04,VALID,918.263,VALID,0,VALID,74.8848,VALID,222.94,VALID,24.7107,VALID,91,VALID,1.71992,
2016-01-13, 10:24:04,VALID,918.238,VALID,0,VALID,74.5646,VALID,226.808,VALID,24.5935,VALID,88,VALID,1.84922,
2016-01-13, 10:25:04,VALID,918.262,VALID,0,VALID,75.9826,VALID,260.222,VALID,24.5136,VALID,64,VALID,1.37227,
2016-01-13, 10:26:04,VALID,918.207,VALID,0,VALID,73.909,VALID,678.276,VALID,24.4569,VALID,141,VALID,0.429297,
2016-01-13, 10:27:04,VALID,918.211,VALID,0,VALID,76.2723,VALID,781.527,VALID,24.574,VALID,94,VALID,0.0535156,
2016-01-13, 10:28:04,VALID,918.218,VALID,0,VALID,72.6359,VALID,780.882,VALID,24.6307,VALID,69,VALID,2.68594,
2016-01-13, 10:29:04,VALID,918.177,VALID,0,VALID,75.8987,VALID,763.692,VALID,24.8083,VALID,9,VALID,1.7543,
2016-01-13, 10:30:04,VALID,918.146,VALID,0,VALID,71.8888,VALID,765.518,VALID,25.0621,VALID,64,VALID,3.75469,
2016-01-13, 10:31:04,VALID,918.12,VALID,0,VALID,74.1682,VALID,757.782,VALID,24.984,VALID,37,VALID,5.10273,
2016-01-13, 10:32:04,VALID,918.174,VALID,0,VALID,73.6117,VALID,571.372,VALID,24.9821,VALID,19,VALID,3.10938,
2016-01-13, 10:33:04,VALID,918.158,VALID,0,VALID,72.613,VALID,745.534,VALID,25.0817,VALID,45,VALID,1.28359,
2016-01-13, 10:34:04,VALID,918.133,VALID,0,VALID,73.6574,VALID,728.881,VALID,25.1402,VALID,45,VALID,3.09453,
2016-01-13, 10:35:04,VALID,918.103,VALID,0,VALID,71.0197,VALID,298.579,VALID,25.0817,VALID,7,VALID,2.60742,
2016-01-13, 10:36:04,VALID,918.131,VALID,0,VALID,72.9103,VALID,366.482,VALID,25.1402,VALID,20,VALID,1.85156,
2016-01-13, 10:37:04,VALID,918.107,VALID,0,VALID,72.0718,VALID,701.913,VALID,25.2769,VALID,47,VALID,0.767578,
2016-01-13, 10:38:04,VALID,918.092,VALID,0,VALID,73.909,VALID,367.556,VALID,25.3726,VALID,68,VALID,0,
2016-01-13, 10:39:04,VALID,918.056,VALID,0,VALID,71.1951,VALID,331.886,VALID,25.5874,VALID,22,VALID,2.71836,
2016-01-13, 10:40:04,VALID,918.093,VALID,0,VALID,73.8328,VALID,765.303,VALID,25.5289,VALID,37,VALID,2.86055,
2016-01-13, 10:41:04,VALID,918.033,VALID,0,VALID,72.2852,VALID,354.019,VALID,25.4117,VALID,56,VALID,3.35586,
2016-01-13, 10:42:04,VALID,918.019,VALID,0,VALID,71.7668,VALID,352.944,VALID,25.1383,VALID,76,VALID,4.15547,
2016-01-13, 10:43:04,VALID,918.082,VALID,0,VALID,72.3615,VALID,730.815,VALID,24.9821,VALID,74,VALID,4.13633,
2016-01-13, 10:44:04,VALID,918.026,VALID,0,VALID,73.5965,VALID,568.256,VALID,24.8669,VALID,26,VALID,1.15703,
2016-01-13, 10:45:04,VALID,918.015,VALID,0,VALID,74.3359,VALID,280.744,VALID,24.9078,VALID,49,VALID,3.05586,
2016-01-13, 10:46:04,VALID,917.976,VALID,0,VALID,74.557,VALID,314.91,VALID,24.8669,VALID,57,VALID,4.07422,
2016-01-13, 10:47:04,VALID,917.939,VALID,0,VALID,73.322,VALID,646.044,VALID,24.7516,VALID,46,VALID,3.28242,
2016-01-13, 10:48:04,VALID,917.958,VALID,0,VALID,74.1225,VALID,337.902,VALID,24.6345,VALID,56,VALID,3.50977,
2016-01-13, 10:49:04,VALID,917.952,VALID,0,VALID,75.1516,VALID,315.984,VALID,24.6521,VALID,24,VALID,3.18516,
2016-01-13, 10:50:04,VALID,918.049,VALID,0,VALID,73.7489,VALID,314.373,VALID,24.693,VALID,90,VALID,2.77813,
2016-01-13, 10:51:04,VALID,917.921,VALID,0,VALID,74.214,VALID,734.038,VALID,24.654,VALID,73,VALID,4.29609,
2016-01-13, 10:52:04,VALID,917.989,VALID,0,VALID,74.0691,VALID,282.355,VALID,24.7107,VALID,61,VALID,4.12578,
2016-01-13, 10:53:04,VALID,917.91,VALID,0,VALID,71.7592,VALID,271.611,VALID,24.654,VALID,103,VALID,4.21719,
2016-01-13, 10:54:04,VALID,918.056,VALID,0,VALID,73.7032,VALID,713.087,VALID,24.5954,VALID,92,VALID,3.07656,
2016-01-13, 10:55:04,VALID,917.949,VALID,0,VALID,72.7426,VALID,334.035,VALID,24.6735,VALID,60,VALID,3.50078,
2016-01-13, 10:56:04,VALID,917.972,VALID,0,VALID,72.7198,VALID,742.203,VALID,24.7126,VALID,77,VALID,4.30742,